Falls City, NE

2:01 PM CDT on March 26, 2017 (GMT -0500)
Brenner

Weather History for KFNB - February, 2014

Change the Weather History Date:

Wednesday, February 19, 2014

  Actual Average Record
Temperature  
Mean Temperature 40 °F -  
Max Temperature 51 °F 45 °F 71 °F (2017)
Min Temperature 28 °F 21 °F -2 °F (1978)
Degree Days  
Heating Degree Days 26    
Moisture  
Dew Point 30 °F    
Average Humidity 71    
Maximum Humidity 86    
Minimum Humidity 52    
Precipitation  
Precipitation 0.00 in - - ()
Sea Level Pressure  
Sea Level Pressure 29.85 in    
Wind  
Wind Speed 6 mph (SE)    
Max Wind Speed 14 mph    
Max Gust Speed -    
Visibility 10 miles    
Events Rain    
Averages and records for this station are not official NWS values.
T = Trace of Precipitation, MM = Missing Value Source: NWS Daily Summary

Daily Weather History Graph

Daily Weather History Graph

Search for Another Location

Airport or City:

Trip Planner

Search our weather history database for the weather conditions in past years. The results will help you decide how hot, cold, wet, or windy it might be!

Date:

Astronomy

Feb. 19, 2014 Rise Set
Actual Time 7:10 AM CST 6:02 PM CST
Civil Twilight 6:42 AM CST 6:30 PM CST
Nautical Twilight 6:10 AM CST 7:02 PM CST
Astronomical Twilight 5:39 AM CST 7:33 PM CST
Moon 10:57 PM CST (2/19) 9:16 AM CST (2/19)
Length of Visible Light 11h 48m
Length of Day
10h 52m
Waning Gibbous, 79% of the Moon is Illuminated
Feb 19
Waning Gibbous
Feb 22
Last Quarter
Mar 1
New
Mar 8
First Quarter
Mar 16
Full

Hourly Weather History & Observations

Time (CST) Temp. Windchill Dew Point Humidity Pressure Visibility Wind Dir Wind Speed Gust Speed Precip Events Conditions
12:53 AM 36.0 °F 30.3 °F 25.0 °F 64% 29.98 in 10.0 mi WNW 6.9 mph - N/A   Clear
1:53 AM 33.1 °F 26.9 °F 25.0 °F 72% 29.98 in 10.0 mi WNW 6.9 mph - N/A   Clear
2:53 AM 34.0 °F 29.8 °F 25.0 °F 70% 29.97 in 10.0 mi WNW 4.6 mph - N/A   Clear
3:53 AM 33.1 °F 28.7 °F 25.0 °F 72% 29.95 in 10.0 mi NW 4.6 mph - N/A   Clear
4:53 AM 30.9 °F - 25.0 °F 79% 29.96 in 10.0 mi Calm Calm - N/A   Clear
5:53 AM 30.0 °F 22.4 °F 24.1 °F 79% 29.98 in 10.0 mi SW 8.1 mph - N/A   Clear
6:53 AM 30.0 °F - 24.1 °F 79% 29.98 in 10.0 mi Calm Calm - N/A   Clear
7:53 AM 28.9 °F - 24.1 °F 82% 29.98 in 10.0 mi Calm Calm - N/A   Clear
8:53 AM 32.0 °F - 27.0 °F 82% 29.97 in 10.0 mi Calm Calm - N/A   Clear
9:53 AM 36.0 °F 30.3 °F 28.9 °F 76% 30.00 in 10.0 mi SSW 6.9 mph - N/A   Clear
10:53 AM 41.0 °F 38.0 °F 30.9 °F 67% 29.98 in 10.0 mi SSE 4.6 mph - N/A   Clear
11:53 AM 43.0 °F 38.8 °F 32.0 °F 65% 29.95 in 10.0 mi South 6.9 mph - N/A   Clear
12:53 PM 48.0 °F - 33.1 °F 56% 29.90 in 10.0 mi SE 9.2 mph - N/A   Clear
1:53 PM 51.1 °F - 34.0 °F 52% 29.86 in 10.0 mi SE 9.2 mph - N/A   Clear
2:53 PM 48.9 °F - 34.0 °F 56% 29.82 in 10.0 mi SE 6.9 mph - N/A   Partly Cloudy
3:53 PM 46.9 °F - 34.0 °F 61% 29.81 in 10.0 mi SE 5.8 mph - N/A   Overcast
4:53 PM 45.0 °F 38.5 °F 34.0 °F 65% 29.76 in 10.0 mi ESE 13.8 mph - 0.00 in   Mostly Cloudy
5:53 PM 44.1 °F 38.6 °F 33.1 °F 65% 29.72 in 10.0 mi SE 10.4 mph - 0.00 in   Overcast
6:53 PM 42.1 °F 35.7 °F 34.0 °F 73% 29.72 in 10.0 mi SE 11.5 mph - 0.00 in Rain Light Rain
7:53 PM 42.1 °F 36.1 °F 34.0 °F 73% 29.70 in 10.0 mi ESE 10.4 mph - 0.00 in   Overcast
8:53 PM 42.1 °F 36.6 °F 34.0 °F 73% 29.68 in 10.0 mi ESE 9.2 mph - N/A   Overcast
9:53 PM 41.0 °F 35.2 °F 35.1 °F 79% 29.65 in 10.0 mi East 9.2 mph - 0.00 in   Overcast
10:53 PM 39.9 °F 35.1 °F 36.0 °F 86% 29.61 in 10.0 mi East 6.9 mph - N/A   Overcast
11:53 PM 41.0 °F 35.8 °F 37.0 °F 86% 29.58 in 10.0 mi East 8.1 mph - 0.00 in Rain Light Rain